カタログに戻る

FALCON 9 DEB

運用中VLEO
NORAD 48837·DEBRIS·🇺🇸 United States

打ち上げ May 15, 2021 から Cape Canaveral Space Force Station

Loading…

次のパス (今後24時間)

TLE

最新Source: Space-Track

元期: Sep 13, 2026, 20:52 UTC

1 48837U 21041BL  26256.86962902  .00002532  00000-0  15730-3 0  9992
2 48837  53.0273  54.1716 0012629  46.1118 314.0915 15.13289706290306

AllMySatでFALCON 9 DEBをリアルタイム追跡

Download on the App Store